Flag for Spain Weather past 2 weeks in Valladolid, Spain

Now
84 °F

Passing clouds.


Feels Like: 82 °F
Forecast: 62 / 90 °F
Wind: 7 mph from West

Location: Valladolid / Villanubla

Current Time: Jul 25, 2014 at 3:52:12 PM

Latest Report: Jul 25, 2014 at 3:30 PM


Visibility: N/A

Pressure: 29.92 "Hg

Humidity: 31%

Dew point: 50 °F

Location of ValladolidLocation

Historic Weather in Valladolid — Graph

°F

Valladolid temperature yesterday

Maximum temperature yesterday: 90 °F (at 5:30 PM)
Minimum temperature yesterday: 61 °F (at 7:00 AM)
Average temperature yesterday: 79 °F

Past Weeks' High & Low Weather Summary

 TemperatureHumidityPressure
High95 °F (Jul 16, 4:30 PM)100% (Jul 19, 2:30 PM)30.27 "Hg (Jul 19, 2:30 PM)
Low48 °F (Jul 11, 7:00 AM)10% (Jul 17, 2:30 PM)29.86 "Hg (Jul 24, 7:00 PM)
Average74 °F45%30.07 "Hg
* Reported Jul 10 2:00 PM — Jul 25 2:30 PM, Valladolid, Weather by CustomWeather, © 2014

Note: Actual official high and low records may vary slightly from our data, if they occured in-between our weather recording intervals... More about our weather records

Advertising

Valladolid weather history for previous 24 hours

 ConditionsComfort  
Time TempWeatherWind HumidityBarometerVisibility
2:30 PM
Jul 25
82 °FSunny.2 mph35%29.92 "Hg10 mi
2:00 PM82 °FSunny.2 mph40%29.95 "Hg10 mi
1:30 PM81 °FSunny.2 mph45%29.95 "Hg10 mi
1:00 PM79 °FSunny.No wind48%29.95 "Hg10 mi
12:30 PM77 °FSunny.3 mph51%29.95 "Hg10 mi
12:00 PM75 °FPassing clouds.5 mph57%29.95 "HgN/A
11:30 AM72 °FPassing clouds.6 mph61%29.95 "HgN/A
11:00 AM70 °FPassing clouds.8 mph69%29.95 "HgN/A
10:30 AM68 °FPassing clouds.9 mph69%29.95 "HgN/A
10:00 AM66 °FPassing clouds.9 mph78%29.95 "HgN/A
9:30 AM64 °FPassing clouds.10 mph83%29.95 "HgN/A
9:00 AM63 °FSunny.12 mph88%29.95 "Hg10 mi
8:30 AM61 °FSunny.8 mph94%29.95 "Hg10 mi
8:00 AM61 °FPassing clouds.7 mph94%29.95 "HgN/A
7:30 AM59 °FPassing clouds.8 mph94%29.95 "HgN/A
7:00 AM59 °FPassing clouds.3 mph94%29.95 "HgN/A
9:30 PM
Jul 24
79 °FPassing clouds.14 mph45%29.89 "HgN/A
9:00 PM84 °FPassing clouds.3 mph23%29.89 "HgN/A
8:30 PM86 °FPassing clouds.6 mph22%29.89 "HgN/A
8:00 PM86 °FPassing clouds.8 mph24%29.86 "HgN/A
7:30 PM88 °FPassing clouds.9 mph21%29.86 "HgN/A
7:00 PM88 °FPassing clouds.8 mph22%29.86 "HgN/A
6:30 PM88 °FPassing clouds.7 mph19%29.89 "HgN/A
6:00 PM90 °FPassing clouds.8 mph18%29.89 "HgN/A
5:30 PM90 °FPassing clouds.9 mph21%29.89 "HgN/A
5:00 PM88 °FPassing clouds.7 mph22%29.89 "HgN/A
4:30 PM88 °FPassing clouds.5 mph21%29.89 "HgN/A
4:00 PM86 °FPassing clouds.5 mph22%29.89 "HgN/A
3:30 PM86 °FPassing clouds.6 mph25%29.92 "HgN/A
3:00 PM86 °FPassing clouds.7 mph27%29.92 "HgN/A
Weather by CustomWeather, © 2014

See weather overviewHow to use our weather pages